Weather History for Gainesville, FL

Change the Weather History Date:

Friday, February 28, 2014

  Actual Average Record
Temperature  
Mean Temperature 50 °F 60 °F  
Max Temperature 67 °F 72 °F 87 °F (1997)
Min Temperature 32 °F 47 °F 25 °F (2002)
Degree Days  
Heating Degree Days 15 7  
Month to date heating degree days 195 233  
Since 1 July heating degree days 910 1034  
Cooling Degree Days 0 1  
Month to date cooling degree days 27 20  
Year to date cooling degree days 37 32  
Moisture  
Dew Point 33 °F    
Average Humidity 58    
Maximum Humidity 92    
Minimum Humidity 24    
Precipitation  
Precipitation 0.00 in 0.12 in 1.36 in (1966)
Month to date precipitation 4.37 3.20  
Year to date precipitation 9.57 6.51  
Snow  
Snow 0.00 in 0.00 in 0.00 in ()
Month to date snowfall 0.0 0.0  
Since 1 July snowfall 0.0 0.0  
Snow Depth 0.00 in    
Sea Level Pressure  
Sea Level Pressure 30.07 in    
Wind  
Wind Speed 5 mph (NNE)    
Max Wind Speed 12 mph    
Max Gust Speed 15 mph    
Visibility 10 miles    
Events      
T = Trace of Precipitation, MM = Missing Value Source: NWS Daily Summary

Daily Weather History Graph

Daily Weather History Graph

Search for Another Location

Airport:

Trip Planner

Search our weather history database for the weather conditions in past years. The results will help you decide how hot, cold, wet, or windy it might be!

Date:

Astronomy

Feb. 28, 2014 Rise Set
Actual Time 6:55 AM EST 6:27 PM EST
Civil Twilight 6:31 AM EST 6:51 PM EST
Nautical Twilight 6:04 AM EST 7:19 PM EST
Astronomical Twilight 5:36 AM EST 7:47 PM EST
Moon 6:08 AM EST (2/28) 6:01 PM EST (2/28)
Length of Visible Light 12h 19m
Length of Day
11h 31m
Waning Crescent, 1% of the Moon is Illuminated
Feb 28
Waning Crescent
Mar 1
New
Mar 8
First Quarter
Mar 16
Full
Mar 23
Last Quarter

Hourly Weather History & Observations

Time (EST) Temp. Windchill Dew Point Humidity Pressure Visibility Wind Dir Wind Speed Gust Speed Precip Events Conditions
12:53 AM 43.0 °F 40.3 °F 36.0 °F 76% 29.99 in 10.0 mi NNW 4.6 mph - N/A   Clear
1:53 AM 39.9 °F 37.8 °F 35.1 °F 83% 29.99 in 10.0 mi NNW 3.5 mph - N/A   Clear
2:53 AM 39.9 °F 35.8 °F 33.1 °F 77% 29.99 in 10.0 mi NNW 5.8 mph - N/A   Clear
3:53 AM 37.0 °F - 34.0 °F 89% 29.99 in 10.0 mi Calm Calm - N/A   Clear
4:53 AM 37.9 °F 34.4 °F 32.0 °F 79% 30.00 in 10.0 mi North 4.6 mph - N/A   Clear
5:53 AM 36.0 °F - 30.9 °F 82% 30.04 in 10.0 mi Calm Calm - N/A   Clear
6:53 AM 32.0 °F - 30.0 °F 92% 30.05 in 10.0 mi Calm Calm - N/A   Clear
7:53 AM 41.0 °F - 33.1 °F 73% 30.08 in 10.0 mi North - - N/A   Clear
8:53 AM 46.9 °F - 32.0 °F 56% 30.09 in 10.0 mi NE 8.1 mph - N/A   Clear
9:53 AM 54.0 °F - 32.0 °F 43% 30.10 in 10.0 mi NE 8.1 mph - N/A   Clear
10:53 AM 57.9 °F - 34.0 °F 41% 30.11 in 10.0 mi Variable 4.6 mph - N/A   Clear
11:53 AM 61.0 °F - 33.1 °F 35% 30.12 in 10.0 mi North - - N/A   Clear
12:53 PM 63.0 °F - 30.9 °F 30% 30.09 in 10.0 mi North - - N/A   Clear
1:53 PM 64.9 °F - 28.9 °F 26% 30.06 in 10.0 mi NNE 8.1 mph - N/A   Clear
2:53 PM 64.9 °F - 30.9 °F 28% 30.05 in 10.0 mi North - - N/A   Clear
3:53 PM 64.9 °F - 28.0 °F 25% 30.05 in 10.0 mi Variable 4.6 mph - N/A   Clear
4:53 PM 66.0 °F - 28.0 °F 24% 30.06 in 10.0 mi North 5.8 mph - N/A   Clear
5:53 PM 64.0 °F - 32.0 °F 30% 30.07 in 10.0 mi NNE 5.8 mph - N/A   Clear
6:53 PM 59.0 °F - 34.0 °F 39% 30.08 in 10.0 mi North 5.8 mph - N/A   Clear
7:53 PM 52.0 °F - 36.0 °F 54% 30.11 in 10.0 mi ENE 10.4 mph - N/A   Clear
8:53 PM 51.1 °F - 37.9 °F 61% 30.13 in 10.0 mi ENE 5.8 mph - N/A   Clear
9:53 PM 48.0 °F - 39.9 °F 74% 30.15 in 10.0 mi ENE 4.6 mph - N/A   Clear
10:53 PM 46.0 °F - 39.9 °F 79% 30.16 in 10.0 mi Calm Calm - N/A   Clear
11:53 PM 43.0 °F 41.3 °F 39.9 °F 89% 30.17 in 10.0 mi NW 3.5 mph - N/A   Clear